Regional Weather Roundup
Issued by NWS Cleveland, OH

Home | Current Version | Previous Version | Text Only | Print | Product List | Glossary Off
Versions: 1 2 3 4 5 6 7 8 9 10 11 12 13 14 15 16 17 18 19 20 21 22 23 24 25 26 27 28 29 30 31 32 33 34 35 36 37 38 39 40 41 42 43 44 45 46 47 48 49 50

000
ASUS41 KCLE 240402
RWRCLE
OHIO REGIONAL WEATHER ROUNDUP
NATIONAL WEATHER SERVICE CLEVELAND, OH
1200 AM EDT MON JUL 24 2017

NOTE: "FAIR" INDICATES FEW OR NO CLOUDS BELOW 12,000 FEET WITH NO
SIGNIFICANT WEATHER AND/OR OBSTRUCTIONS TO VISIBILITY.

OHZ001>008-015>018-024>027-034-035-043-044-240500-
   NORTHWEST OHIO

CITY           SKY/WX    TMP DP  RH WIND       PRES   REMARKS
DEFIANCE       CLOUDY   N/A N/A N/A CALM      29.81R
FINDLAY        CLEAR     70  64  81 SW6       29.79R
TOLEDO EXPRESS PTCLDY    70  70 100 W5        29.79R
TOLEDO EXEC    CLOUDY    71  70  96 W3        29.79S
LIMA           CLOUDY    68  67  96 SW5       29.83R
$$

OHZ009>014-019>023-028>033-038-089-240500-
   NORTHEAST OHIO

CITY           SKY/WX    TMP DP  RH WIND       PRES   REMARKS
CLE-HOPKINS    MOCLDY    73  66  78 SW6       29.79F
CLE-LAKEFRONT  CLOUDY    75  69  81 W9        29.75F
CUY CO. ARPT   NOT AVBL
LORAIN-ELYRIA  CLEAR     67  61  81 SW6       29.78F
ASHTABULA      MOCLDY    70  69  97 CALM      29.78R
AKRON-CANTON   CLOUDY    71  66  84 W7        29.80S
WOOSTER        PTCLDY    66  65  96 CALM      29.81S
MANSFIELD      CLEAR     66  65  96 SW6       29.81F
YOUNGSTOWN     CLOUDY    71  69  93 CALM      29.79S
$$

OHZ042-051>053-060>062-070>072-077>081-240500-
  SOUTHWEST OHIO

CITY           SKY/WX    TMP DP  RH WIND       PRES   REMARKS
CINC-COVINGTON CLEAR     72  70  93 SW6       29.84F
CINC-LUNKEN    CLEAR     69  69 100 S8        29.82F
HAMILTON       CLEAR     70  69  97 NW3       29.85R
DAYTON         PTCLDY    68  64  87 CALM      29.86R
WRIGHT-PAT AFB CLEAR     69  68  96 CALM      29.84R
DAYTON GENERAL CLEAR     73  68  84 W3        29.84R
WILMINGTON     CLEAR     68  68 100 S5        29.83F
$$

OHZ036-037-039>041-045>050-054>059-063>069-073>076-082>088-240500-
  CENTRAL AND SOUTHEAST OHIO

CITY           SKY/WX    TMP DP  RH WIND       PRES   REMARKS
COLUMBUS       PTCLDY    69  69 100 S3        29.81F
OSU AIRPORT    CLEAR     69  69 100 S3        29.82R
BOLTON FIELD   CLEAR     67  67 100 SW6       29.83S
RICKENBACK AFB CLEAR     67  67 100 CALM      29.82S
NEWARK         MOCLDY    68  66  93 SW3       29.82S
MARION         CLEAR     68  66  93 CALM      29.82R FOG
LANCASTER      CLEAR     65  65 100 S3        29.83S
ZANESVILLE     MOCLDY    68  65  90 S9        29.82S
NEW PHILLY     NOT AVBL
$$




USA.gov is the U.S. government's official web portal to all federal, state and local government web resources and services.